Forks, WA

7:56 PM PST on February 19, 2017 (GMT -0800)
Quillayute

Weather History for KUIL - November, 2012

Change the Weather History Date:

Tuesday, November 13, 2012

  Actual Average Record
Temperature  
Mean Temperature 48 °F 45 °F  
Max Temperature 49 °F 51 °F 61 °F (1979)
Min Temperature 47 °F 39 °F 20 °F (1978)
Degree Days  
Heating Degree Days 17 20  
Month to date heating degree days 250  
Since 1 July heating degree days 1340  
Cooling Degree Days 0 0  
Month to date cooling degree days 0  
Year to date cooling degree days 19  
Moisture  
Dew Point 48 °F    
Average Humidity 99    
Maximum Humidity 100    
Minimum Humidity 93    
Precipitation  
Precipitation 1.39 in 0.52 in 3.74 in (1975)
Month to date precipitation 6.50  
Year to date precipitation 77.53  
Sea Level Pressure  
Sea Level Pressure 30.14 in    
Wind  
Wind Speed 3 mph (East)    
Max Wind Speed 10 mph    
Max Gust Speed 15 mph    
Visibility 3 miles    
Events Fog , Rain    
T = Trace of Precipitation, MM = Missing Value Source: NWS Daily Summary

Daily Weather History Graph

Daily Weather History Graph

Search for Another Location

Airport or City:

Trip Planner

Search our weather history database for the weather conditions in past years. The results will help you decide how hot, cold, wet, or windy it might be!

Date:

Astronomy

Nov. 13, 2012 Rise Set
Actual Time 7:22 AM PST 4:42 PM PST
Civil Twilight 6:48 AM PST 5:16 PM PST
Nautical Twilight 6:11 AM PST 5:53 PM PST
Astronomical Twilight 5:34 AM PST 6:30 PM PST
Moon 7:08 AM PST (11/13) 4:37 PM PST (11/13)
Length of Visible Light 10h 27m
Length of Day
9h 20m
Waning Crescent, 0% of the Moon is Illuminated
Nov 13
Waning Crescent
Nov 13
New
Nov 20
First Quarter
Nov 28
Full
Dec 6
Last Quarter

Hourly Weather History & Observations

Time (PST) Temp. Windchill Dew Point Humidity Pressure Visibility Wind Dir Wind Speed Gust Speed Precip Events Conditions
12:53 AM 48.9 °F - 48.9 °F 100% 30.17 in 7.0 mi Calm Calm - N/A   Overcast
1:12 AM 48.2 °F - 48.2 °F 100% 30.17 in 6.0 mi Calm Calm - N/A   Overcast
1:41 AM 48.2 °F - 48.2 °F 100% 30.17 in 5.0 mi Calm Calm - N/A   Overcast
1:53 AM 48.9 °F - 48.9 °F 100% 30.17 in 5.0 mi Calm Calm - N/A   Overcast
2:06 AM 48.2 °F - 48.2 °F 100% 30.17 in 6.0 mi Calm Calm - N/A   Overcast
2:15 AM 48.2 °F - 48.2 °F 100% 30.17 in 5.0 mi Calm Calm - N/A   Overcast
2:22 AM 48.2 °F - 48.2 °F 100% 30.17 in 5.0 mi Calm Calm - N/A   Mostly Cloudy
2:32 AM 48.2 °F - 48.2 °F 100% 30.16 in 5.0 mi Calm Calm - N/A   Mostly Cloudy
2:41 AM 48.2 °F - 48.2 °F 100% 30.16 in 5.0 mi Calm Calm - N/A   Mostly Cloudy
2:51 AM 48.2 °F - 48.2 °F 100% 30.16 in 5.0 mi Calm Calm - N/A   Overcast
2:53 AM 48.9 °F - 48.9 °F 100% 30.17 in 5.0 mi Calm Calm - N/A   Overcast
3:41 AM 48.2 °F - 48.2 °F 100% 30.16 in 2.5 mi Calm Calm - 0.01 in Rain Light Rain
3:51 AM 48.2 °F - 48.2 °F 100% 30.16 in 3.0 mi Calm Calm - 0.01 in Rain Light Rain
4:16 AM 48.2 °F - 48.2 °F 100% 30.15 in 6.0 mi Calm Calm - 0.00 in   Overcast
4:53 AM 48.0 °F - 48.0 °F 100% 30.16 in 4.0 mi East 3.5 mph - 0.00 in Rain Light Rain
5:15 AM 48.2 °F - 48.2 °F 100% 30.16 in 5.0 mi East 3.5 mph - 0.00 in Rain Light Rain
5:21 AM 48.2 °F - 48.2 °F 100% 30.16 in 1.8 mi Calm Calm - 0.01 in Rain Rain
5:28 AM 48.2 °F - 48.2 °F 100% 30.16 in 1.5 mi Calm Calm - 0.03 in Rain Light Rain
5:43 AM 48.2 °F - 48.2 °F 100% 30.16 in 1.0 mi Calm Calm - 0.10 in Rain Heavy Rain
5:53 AM 48.0 °F - 48.0 °F 100% 30.17 in 1.2 mi SE 3.5 mph - 0.19 in Rain Rain
5:57 AM 48.2 °F - 48.2 °F 100% 30.16 in 2.0 mi Calm Calm - 0.01 in Rain Rain
6:09 AM 48.2 °F - 48.2 °F 100% 30.16 in 3.0 mi ESE 3.5 mph - 0.03 in Rain Light Rain
6:32 AM 48.2 °F - 48.2 °F 100% 30.16 in 3.0 mi SE 4.6 mph - 0.04 in Rain Light Rain
6:37 AM 48.2 °F - 48.2 °F 100% 30.16 in 2.0 mi ESE 6.9 mph - 0.05 in Rain Rain
6:41 AM 48.2 °F - 48.2 °F 100% 30.16 in 1.8 mi Calm Calm - 0.07 in Rain Rain
6:53 AM 48.0 °F - 48.0 °F 100% 30.17 in 2.5 mi Calm Calm - 0.10 in Rain Light Rain
7:01 AM 48.2 °F - 48.2 °F 100% 30.16 in 3.0 mi Calm Calm - 0.01 in Rain Light Rain
7:14 AM 48.2 °F - 48.2 °F 100% 30.16 in 2.5 mi East 5.8 mph - 0.03 in Rain Light Rain
7:22 AM 48.2 °F - 48.2 °F 100% 30.16 in 5.0 mi ESE 3.5 mph - 0.03 in Rain Light Rain
7:39 AM 48.2 °F - 48.2 °F 100% 30.17 in 2.5 mi Calm Calm - 0.06 in Rain Light Rain
7:53 AM 48.0 °F - 48.0 °F 100% 30.17 in 3.0 mi SE 3.5 mph - 0.07 in Rain Light Rain
8:00 AM 48.2 °F - 48.2 °F 100% 30.15 in 1.5 mi ESE 9.2 mph - 0.01 in Rain Rain
8:07 AM 48.2 °F - 48.2 °F 100% 30.15 in 1.0 mi East 9.2 mph - 0.04 in Rain Rain
8:26 AM 48.2 °F - 48.2 °F 100% 30.15 in 2.0 mi Variable 4.6 mph - 0.06 in Rain Light Rain
8:39 AM 48.2 °F - 48.2 °F 100% 30.15 in 5.0 mi East 4.6 mph - 0.07 in Rain Light Rain
8:53 AM 48.0 °F - 48.0 °F 100% 30.15 in 6.0 mi ESE 4.6 mph - 0.07 in   Overcast
9:21 AM 48.2 °F - 48.2 °F 100% 30.15 in 2.5 mi SE 5.8 mph - 0.01 in Rain Light Rain
9:30 AM 48.2 °F - 48.2 °F 100% 30.15 in 1.2 mi ESE 5.8 mph - 0.02 in Rain Rain
9:53 AM 48.0 °F - 48.0 °F 100% 30.15 in 0.5 mi ESE 8.1 mph - 0.10 in Fog , Rain Rain
10:00 AM 48.2 °F - 46.4 °F 93% 30.15 in 1.8 mi ESE 5.8 mph - 0.00 in Rain Light Rain
10:02 AM 48.2 °F - 48.2 °F 100% 30.15 in 3.0 mi East 6.9 mph - 0.00 in Rain Light Rain
10:28 AM 48.2 °F - 48.2 °F 100% 30.15 in 1.8 mi East 3.5 mph - 0.00 in Rain Rain
10:37 AM 48.2 °F - 46.4 °F 93% 30.15 in 1.2 mi East 3.5 mph - 0.01 in Rain Light Rain
10:53 AM 48.0 °F - 46.9 °F 96% 30.15 in 1.5 mi Calm Calm - 0.06 in Rain Rain
11:08 AM 48.2 °F - 48.2 °F 100% 30.15 in 1.5 mi ENE 5.8 mph - 0.04 in Rain Rain
11:18 AM 48.2 °F - 48.2 °F 100% 30.14 in 3.0 mi East 4.6 mph - 0.05 in Rain Light Rain
11:28 AM 48.2 °F - 46.4 °F 93% 30.14 in 2.5 mi ENE 5.8 mph - 0.06 in Rain Light Rain
11:44 AM 46.4 °F 44.3 °F 46.4 °F 100% 30.13 in 3.0 mi East 4.6 mph - 0.08 in Rain Light Rain
11:53 AM 48.0 °F - 46.9 °F 96% 30.14 in 2.5 mi SE 4.6 mph - 0.09 in Rain Light Rain
12:04 PM 48.2 °F - 48.2 °F 100% 30.13 in 1.2 mi ESE 8.1 mph - 0.02 in Rain Rain
12:14 PM 48.2 °F - 48.2 °F 100% 30.12 in 0.5 mi ESE 6.9 mph - 0.07 in Fog , Rain Heavy Rain
12:42 PM 48.2 °F - 48.2 °F 100% 30.12 in 1.5 mi ENE 8.1 mph - 0.16 in Rain Light Rain
12:48 PM 48.2 °F - 48.2 °F 100% 30.13 in 2.0 mi NE 6.9 mph - 0.16 in Rain Light Rain
12:53 PM 48.0 °F - 48.0 °F 100% 30.12 in 2.5 mi NE 9.2 mph - 0.17 in Rain Light Rain
1:21 PM 48.2 °F - 48.2 °F 100% 30.12 in 1.8 mi ENE 8.1 mph - 0.04 in Rain Rain
1:33 PM 48.2 °F - 48.2 °F 100% 30.12 in 1.2 mi ENE 9.2 mph - 0.10 in Rain Rain
1:53 PM 48.0 °F - 48.0 °F 100% 30.12 in 1.0 mi East 5.8 mph - 0.16 in Rain Rain
2:05 PM 48.2 °F - 48.2 °F 100% 30.11 in 0.8 mi East 4.6 mph - 0.04 in Rain Heavy Rain
2:19 PM 48.2 °F - 48.2 °F 100% 30.10 in 0.5 mi ENE 8.1 mph - 0.12 in Fog , Rain Rain
2:53 PM 48.0 °F - 48.0 °F 100% 30.10 in 0.5 mi East 8.1 mph - 0.23 in Fog , Rain Rain
3:19 PM 48.2 °F - 46.4 °F 93% 30.10 in 1.0 mi ENE 5.8 mph - 0.04 in Rain Light Rain
3:29 PM 48.2 °F - 48.2 °F 100% 30.10 in 0.8 mi ENE 6.9 mph - 0.06 in Rain Light Rain
3:41 PM 48.2 °F - 48.2 °F 100% 30.10 in 1.0 mi ENE 4.6 mph - 0.07 in Rain Light Rain
3:53 PM 48.0 °F - 46.9 °F 96% 30.10 in 0.5 mi NNE 3.5 mph - 0.10 in Fog , Rain Rain
4:14 PM 48.2 °F - 48.2 °F 100% 30.10 in 1.2 mi ENE 4.6 mph - 0.02 in Rain Light Rain
4:30 PM 48.2 °F - 46.4 °F 93% 30.09 in 2.0 mi NE 4.6 mph - 0.03 in Rain Light Rain
4:45 PM 48.2 °F - 48.2 °F 100% 30.10 in 4.0 mi NE 3.5 mph - 0.03 in   Overcast
4:53 PM 48.0 °F - 46.9 °F 96% 30.10 in 5.0 mi NE 4.6 mph - 0.03 in   Overcast
5:15 PM 48.2 °F - 48.2 °F 100% 30.10 in 6.0 mi NE 3.5 mph - N/A   Overcast
5:40 PM 46.4 °F 44.3 °F 46.4 °F 100% 30.10 in 6.0 mi NE 4.6 mph - N/A   Overcast
5:53 PM 46.9 °F - 46.9 °F 100% 30.10 in 6.0 mi NNE 3.5 mph - N/A   Overcast
6:53 PM 46.9 °F - 46.9 °F 100% 30.11 in 5.0 mi NNE 3.5 mph - 0.00 in   Overcast
7:53 PM 46.9 °F - 46.9 °F 100% 30.12 in 7.0 mi ENE 4.6 mph - N/A   Overcast
8:53 PM 46.9 °F - 46.9 °F 100% 30.14 in 6.0 mi North 3.5 mph - N/A   Overcast
9:53 PM 48.0 °F - 46.9 °F 96% 30.15 in 7.0 mi Calm Calm - N/A   Overcast
10:22 PM 48.2 °F - 46.4 °F 93% 30.16 in 2.5 mi Calm Calm - 0.00 in Rain Light Rain
10:34 PM 48.2 °F - 48.2 °F 100% 30.16 in 3.0 mi Calm Calm - 0.00 in Rain Light Rain
10:53 PM 48.0 °F - 46.9 °F 96% 30.17 in 3.0 mi Calm Calm - 0.00 in Rain Light Rain
11:27 PM 48.2 °F - 48.2 °F 100% 30.17 in 1.8 mi Calm Calm - 0.00 in Rain Light Rain
11:53 PM 48.0 °F - 46.9 °F 96% 30.18 in 1.5 mi Calm Calm - 0.01 in Rain Light Rain